Погода в Куцовке

Украина / Кировоградская область     48°18′52″N   32°47′27″E
темп.,
°C
ветер,
м/с
пор.,
м/с
влажн.,
%
обл.,
%
осадки,
мм/ч
давл.,
гПа
погр.,
м
9 мая, вс
вс900:00+5сз612845 0.0 1017504
03:00+4сз612894 0.0 1018449
06:00+3сз511930 0.0 1020386
09:00+8ссз710605 0.0 10221194
12:00+12ссз7104695 0.0 10222328
15:00+12ссз894779 0.0 10232078
18:00+11сз585381 0.0 10241372
21:00+7сз34695 0.0 102651
10 мая, пн
пн1000:00+6сз34755 0.0 102755
03:00+5ссз33782 0.0 102829
06:00+5с33770 0.0 102837
09:00+11с34521 0.0 1028716
12:00+14с56395 0.0 10271813
15:00+15с66371 0.0 10261870
18:00+14с57454 0.0 10241671
21:00+9с46653 0.0 102594
11 мая, вт
вт1100:00+7ссз410720 0.0 1023181
03:00+6ссз513804 0.0 1022307
06:00+8ссз7156899 0.0 1020498
09:00+10с71271100 0.0 1019561
12:00+13с7107190 0.0 1018631
15:00+14с8117596 0.0 1017990
18:00+12всв597752 0.2 1017823
21:00+8св37795 0.2 1017124
12 мая, ср
ср1200:00+7ссв498588 0.0 1016323
03:00+7ссв4887100 0.2 1015522
06:00+7ссв4888100 0.2 1014583
09:00+8ссв468384 0.4 1013717
12:00+9с2280100 0.8 1013620
15:00+12ююз346095 1.2 10121279
18:00+13ююз3559100 0.3 10131258
21:00+9ююв337392 0.4 101326
13 мая, чт
чт1300:00+8ююв337596 0.0 101427
03:00+7вюв338122 0.0 101333
06:00+8вюв358689 0.0 101487
09:00+14вюв5874100 0.0 1013536
12:00+19юв7955100 0.0 10121369
15:00+22юв6946100 0.0 10101881
18:00+22ююв695312 0.0 10091222
21:00+15юв4127043 0.0 1010207